[Iaude] MPEC K44: 2016 LQ88 [a=38.11,e=0.08,i=23.8,H=7.92]
    mpec at cfa.harvard.edu 
    mpec at cfa.harvard.edu
       
    Thu May 23 11:20:36 EDT 2024
    
    
  
M.P.E.C. 2024-K44                                  Issued 2024 May 23, 15:18 UT
     The Minor Planet Electronic Circulars contain information on unusual
         minor planets, routine data on comets and natural satellites,
         and occasional editorial announcements.  They are published
    on behalf of Division F of the International Astronomical Union by the
          Minor Planet Center, Smithsonian Astrophysical Observatory,
                          Cambridge, MA 02138, U.S.A.
			  
             Prepared using the Tamkin Foundation Computer Network
                              MPC at CFA.HARVARD.EDU
            URL https://www.minorplanetcenter.net/    ISSN 1523-6714
                                   2016 LQ88                                    
Additional Observations:
     K16L88Q 5C2009 06 25.43723315 19 47.48 +06 03 50.0                WEK044T14
     K16L88Q 5C2009 06 26.43906415 19 43.78 +06 03 33.8          23.3 rWEK044T14
     K16L88Q &C2016 04 10.29399616 12 05.60 +01 12 52.2          23.9 gWEK044W84
     K16L88Q &C2016 04 10.30663216 12 05.58 +01 12 53.0          23.7 gWEK044W84
     K16L88Q &C2016 04 10.31382116 12 05.51 +01 12 53.1          23.8 gWEK044W84
     K16L88Q &C2016 08 02.98688316 03 46.24 +01 15 36.2          23.5 gWEK044W84
     K16L88Q &C2017 05 21.33758816 15 31.01 +00 49 08.0                WEK044W84
     K16L88Q &C2017 07 22.12977716 10 45.20 +00 42 02.9                WEK044W84
     K16L88Q <C2018 04 14.40046216 25 11.234-00 05 43.06               VEK044W84
     K16L88Q <C2018 04 14.40182716 25 11.222-00 05 43.23         23.24iVEK044W84
     K16L88Q &C2022 08 16.03442716 43 07.86 -02 50 23.6                WEK044W84
Observer details:
T14 Canada-France-Hawaii Telescope, Maunakea.  Observer H. Hoekstra.  Measurer
    S. Deen.  3.58-m Canada-France-Hawaii Telescope + CCD.
W84 Cerro Tololo-DECam.  Observers A. Dey, D. James, A. Walker, A. Raichoor,
    R. Beilby, B. Blum, S. Juneau, G. Stringfellow, C. Freitas, J. Macedo.
    Measurers S. Deen, A. Coffinet.  4.0-m reflector + CCD, 4.0-m Reflector +
    CCD.
Orbital elements:
2016 LQ88                                                                       
Epoch 2024 Mar. 31.0 TT = JDT 2460400.5                 Alexandersen            
M 339.47532              (2000.0)            P               Q                  
n   0.00418853     Peri.  152.64342     +0.13318597     +0.93192423             
a  38.1149274      Node   123.12963     -0.96693581     +0.19686512             
e   0.0794618      Incl.   23.75272     -0.21747791     -0.30456750             
P 235              H    7.92          G   0.15           U   4                  
Residuals in seconds of arc
090625 T14  0.1+  0.0     160609 568  0.1-  0.0     170521 W84  0.0   0.0
090626 T14  0.0   0.1+    160609 568  0.1-  0.0     170722 W84  0.2+  0.2-
160410 W84  0.0   0.2-    160610 568  0.1-  0.0     180414 W84  0.0   0.2+
160410 W84  0.4+  0.2+    160610 568  0.1-  0.0     180414 W84  0.1-  0.0
160410 W84  0.2-  0.0     160802 W84  0.0   0.3-    220816 W84  0.1+  0.1+
Ephemeris:
2016 LQ88                a,e,i = 38.11, 0.08, 24                 q = 35.0862
Date    TT    R. A. (2000) Decl.     Delta      r    Elong.  Phase     V
2024 04 23    17 04 59.2 -04 02 32  34.6002 35.3097   134.3     1.2    23.5
...
2024 05 08    17 03 55.7 -03 57 20  34.4575 35.3083   147.0     0.9    23.5
...
2024 05 16    17 03 16.0 -03 55 09  34.4037 35.3076   153.0     0.7    23.5
...
2024 05 22    17 02 44.3 -03 53 49  34.3743 35.3071   156.8     0.6    23.5
2024 05 23    17 02 38.9 -03 53 38  34.3703 35.3070   157.4     0.6    23.5
2024 05 24    17 02 33.5 -03 53 27  34.3667 35.3069   157.9     0.6    23.5
...
2024 05 30    17 02 00.4 -03 52 31  34.3502 35.3064   160.3     0.6    23.4
...
2024 06 07    17 01 15.4 -03 51 46  34.3438 35.3057   161.1     0.5    23.4
...
2024 06 22    16 59 51.8 -03 51 59  34.3795 35.3043   155.2     0.7    23.5
M. P. C. Staff               (C) Copyright 2024 MPC           M.P.E.C. 2024-K44
    
    
More information about the Iaude
mailing list